Weather History for Gizan, Saudi Arabia

Change the Weather History Date:

Friday, January 18, 2013

  Actual Average Record
Temperature  
Mean Temperature 80 °F -  
Max Temperature 87 °F 84 °F 89 °F (2012)
Min Temperature 73 °F 71 °F 50 °F (1999)
Cooling Degree Days 15    
Growing Degree Days 30 (Base 50)    
Moisture  
Dew Point 69 °F    
Average Humidity 66    
Maximum Humidity 74    
Minimum Humidity 49    
Precipitation  
Precipitation 0.00 in - - ()
Sea Level Pressure  
Sea Level Pressure 29.95 in    
Wind  
Wind Speed 7 mph ()    
Max Wind Speed 16 mph    
Max Gust Speed -    
Visibility 5.6 miles    
Events      
Averages and records for this station are not official NWS values.
T = Trace of Precipitation, MM = Missing Value Source: Averaged Metar Reports

Daily Weather History Graph

Daily Weather History Graph

Search for Another Location

Airport:

Trip Planner

Search our weather history database for the weather conditions in past years. The results will help you decide how hot, cold, wet, or windy it might be!

Date:

Astronomy

Jan. 18, 2013 Rise Set
Actual Time 6:42 AM AST 5:57 PM AST
Civil Twilight 6:19 AM AST 6:20 PM AST
Nautical Twilight 5:52 AM AST 6:47 PM AST
Astronomical Twilight 5:26 AM AST 7:13 PM AST
Moon 11:19 AM AST (1/18) No Moon Set
Length of Visible Light 12h 01m
Length of Day
11h 15m
Waxing Crescent, 44% of the Moon is Illuminated
Jan 18
Waxing Crescent
Jan 19
First Quarter
Jan 27
Full
Feb 3
Last Quarter
Feb 10
New

Hourly Weather History & Observations

Time (AST) Temp. Heat Index Dew Point Humidity Pressure Visibility Wind Dir Wind Speed Gust Speed Precip Events Conditions
12:00 AM 79 °F - 70 °F 67% 29.92 in 6 mi NE 4.6 mph - -  
12:00 AM 78.8 °F - 69.8 °F 74% 29.95 in - NE 4.6 mph - N/A   Clear
1:00 AM 78.8 °F - 68.0 °F 69% 29.95 in - ESE 6.9 mph - N/A   Clear
2:00 AM 78.8 °F - 68.0 °F 69% 29.95 in - ESE 4.6 mph - N/A   Clear
3:00 AM 77 °F - 68 °F 67% 29.92 in 6 mi ESE 5.8 mph - -   Scattered Clouds
3:00 AM 77.0 °F - 68.0 °F 74% 29.92 in 6.2 mi ESE 5.8 mph - N/A   Partly Cloudy
4:00 AM 77.0 °F - 68.0 °F 74% 29.92 in 6.2 mi East 4.6 mph - N/A   Scattered Clouds
5:00 AM 75.2 °F - 66.2 °F 73% 29.95 in 5.6 mi East 4.6 mph - N/A   Scattered Clouds
6:00 AM 75 °F - 66 °F 67% 29.96 in 6 mi East 6.9 mph - -   Haze
6:00 AM 75.2 °F - 66.2 °F 73% 29.95 in 5.6 mi East 6.9 mph - N/A   Scattered Clouds
7:00 AM 75.2 °F - 66.2 °F 73% 29.98 in 5.0 mi East 6.9 mph - N/A   Partly Cloudy
8:00 AM 77.0 °F - 66.2 °F 69% 30.01 in 5.0 mi ESE 10.4 mph - N/A   Partly Cloudy
9:00 AM 79 °F - 68 °F 61% 30.01 in 6 mi SE 9.2 mph - -   Haze
9:00 AM 78.8 °F - 68.0 °F 69% 30.01 in 5.6 mi SE 9.2 mph - N/A   Clear
10:00 AM 82.4 °F 85.4 °F 68.0 °F 62% 30.04 in - SSE 9.2 mph - N/A   Clear
11:00 AM 84.2 °F 88.4 °F 69.8 °F 62% 30.01 in - South 13.8 mph - N/A   Clear
12:00 PM 85 °F - 70 °F 52% 29.95 in 6 mi South 13.8 mph - -   Scattered Clouds
12:00 PM 86.0 °F 90.4 °F 69.8 °F 58% 29.98 in - South 13.8 mph - N/A   Clear
1:00 PM 86.0 °F 90.4 °F 69.8 °F 58% 29.95 in 6.2 mi South 16.1 mph - N/A   Partly Cloudy
2:00 PM 86.0 °F 90.4 °F 69.8 °F 58% 29.92 in 4.3 mi South 16.1 mph - N/A   Partly Cloudy
3:00 PM 86 °F - 70 °F 49% 29.86 in 6 mi SSE 13.8 mph - -   Widespread Dust
3:00 PM 86.0 °F 90.4 °F 69.8 °F 58% 29.89 in 5.6 mi SSE 13.8 mph - N/A   Clear
4:00 PM 84.2 °F 89.6 °F 71.6 °F 66% 29.89 in 5.6 mi SSE 13.8 mph - N/A   Clear
5:00 PM 82.4 °F 87.2 °F 71.6 °F 70% 29.89 in 5.6 mi South 12.7 mph - N/A   Clear
6:00 PM 82 °F - 72 °F 63% 29.90 in 6 mi South 5.8 mph - -   Haze
6:00 PM 82.4 °F 87.2 °F 71.6 °F 70% 29.92 in 5.6 mi South 5.8 mph - N/A   Clear
7:00 PM 82.4 °F 87.2 °F 71.6 °F 70% 29.92 in 5.6 mi SSE 6.9 mph - N/A   Clear
8:00 PM 82.4 °F 87.2 °F 71.6 °F 70% 29.95 in 5.6 mi SSE 5.8 mph - N/A   Clear
9:00 PM 82 °F - 72 °F 63% 29.93 in 6 mi East 6.9 mph - -   Haze
9:00 PM 82.4 °F 87.2 °F 71.6 °F 70% 29.95 in 5.6 mi East 6.9 mph - N/A   Clear
10:00 PM 80.6 °F 83.9 °F 69.8 °F 70% 29.95 in 5.6 mi East 5.8 mph - N/A   Clear
11:00 PM 80.6 °F 83.2 °F 68.0 °F 65% 29.95 in 4.3 mi SE 10.4 mph - N/A   Clear